www.pogodaiklimat.ru

Погода и климат >> Архив погоды >> Россия >> Ивановская область >> Тейково


ПОГОДА в Тейково

  • Прогноз погоды в Тейково
  • Монитор погоды в Тейково

АРХИВ ПОГОДЫ в Тейково

Время (UTC), дата Ветер
(напр.,м/с)
 
Видим.   Явления Облачность Т
(С)
Тd
(С)
f
(%)
Тe
(С)
Тes
(С)
Комфортность P
(гПа)
Po
(гПа)
Тmin
(С)
Tmax
(С)
R
(мм)
R24
(мм)
S
(см)
09 10.07 ЮЗ 2 н/о н/о +18.0 +12.5 70 +19 +19 999.6 984.4
12 10.07 ЮЗ 1 н/о н/о +16.0 +12.5 80 +17 +17 995.7 980.5
15 10.07 ЮЗ 1 н/о н/о +14.5 +13.2 92 +15 +15 994.9 979.6 +18.6 3
18 10.07 штиль 0 н/о н/о +13.7 +12.7 94 +13 +13 996.0 980.6
21 10.07 СЗ 1 н/о н/о +12.7 +11.7 94 +13 +13 997.2 981.7
00 11.07 СЗ 1 н/о н/о +11.4 +10.7 95 +11 +11 997.4 981.9
03 11.07 СЗ 1 н/о н/о +11.8 +11.0 95 +12 +12 999.1 983.6 +11.2 1
06 11.07 С 1 н/о н/о +12.6 +11.0 90 +13 +13 1000.6 985.1 +11.2
09 11.07 С 1 н/о н/о +13.6 +11.2 85 +14 +14 1002.3 986.8
12 11.07 СЗ 2 н/о н/о +12.6 +10.2 85 +12 +12 1002.6 987.0
15 11.07 С 2 н/о н/о +12.5 +10.2 86 +12 +12 1003.3 987.8 +14.4 0.7
18 11.07 штиль 0 н/о н/о +11.5 +9.8 89 +11 +11 1003.2 987.6
21 11.07 штиль 0 н/о н/о +9.3 +8.2 93 +8 +8 1003.0 987.3
00 12.07 штиль 0 н/о н/о +8.9 +8.2 95 +8 +8 1004.2 988.4
03 12.07 штиль 0 н/о н/о +9.3 +8.5 95 +8 +8 1005.9 990.1 +8.7 0.7
06 12.07 штиль 0 н/о н/о +11.3 +9.5 89 +11 +11 1008.5 992.8 +8.7
09 12.07 штиль 0 н/о н/о +13.9 +7.5 65 +14 +14 1010.2 994.6
12 12.07 штиль 0 н/о н/о +15.0 +7.2 60 +15 +15 1010.2 994.6
15 12.07 штиль 0 н/о н/о +15.0 +6.0 55 +15 +15 1009.5 993.9 +17.2 0.5
18 12.07 штиль 0 н/о н/о +11.8 +8.4 80 +11 +11 1006.7 991.1
21 12.07 штиль 0 н/о н/о +8.6 +7.5 93 +8 +8 1006.4 990.6
00 13.07 штиль 0 н/о н/о +6.9 +6.0 94 +6 +6 1007.2 991.2
03 13.07 штиль 0 н/о н/о +9.0 +8.0 93 +8 +8 1009.3 993.5 +6.8
06 13.07 штиль 0 н/о н/о +10.8 +9.7 93 +10 +10 1010.5 994.7 +6.8
09 13.07 С 1 н/о н/о +16.2 +8.7 61 +17 +17 1013.9 998.4
12 13.07 СЗ 1 н/о н/о +17.2 +8.7 57 +18 +18 1012.0 996.6
15 13.07 штиль 0 н/о н/о +17.0 +8.4 57 +17 +17 1009.5 994.1 +19.5 2
18 13.07 штиль 0 н/о н/о +13.4 +9.7 78 +13 +13 1007.5 991.9
21 13.07 штиль 0 н/о н/о +9.4 +8.4 93 +9 +9 1007.6 991.7
00 14.07 штиль 0 н/о н/о +7.1 +6.2 94 +6 +6 1008.4 992.4
03 14.07 штиль 0 н/о н/о +8.0 +7.2 95 +7 +7 1011.3 995.3 +6.5
06 14.07 штиль 0 н/о н/о +19.2 +9.4 53 +20 +20 1019.4 1003.9 +6.5
09 14.07 З 1 н/о н/о +19.2 +8.5 50 +21 +21 комфорт 1012.0 996.6
12 14.07 З 1 н/о н/о +18.4 +10.2 59 +20 +20 1010.5 995.1
15 14.07 штиль 0 н/о н/о +18.8 +9.2 54 +19 +19 1011.2 995.8 +22.0 0.2
18 14.07 штиль 0 н/о н/о +14.4 +12.7 90 +14 +14 1008.5 992.9
21 14.07 штиль 0 н/о н/о +11.4 +10.5 94 +11 +11 1008.4 992.7
00 15.07 штиль 0 н/о н/о +8.6 +7.7 94 +8 +8 1008.6 992.8
03 15.07 штиль 0 н/о н/о +11.4 +10.7 95 +11 +11 1011.8 996.0 +7.6 1
06 15.07 С 1 н/о н/о +20.4 +10.5 53 +23 +23 комфорт 1019.4 1004.0 +7.6
09 15.07 З 1 н/о н/о +23.0 +7.0 36 +24 +24 комфорт 1014.0 998.8

 

Местоположение метеостанции Тейково (Ивановская область, Россия): широта 56.85 долгота 40.54 высота над уровнем моря 131 м.

В архиве по умолчанию представлена погода в Тейково за последнюю неделю. Архивные данные за месяц целиком и за предыдущие месяцы, начиная с января 2011 года, Вы можете получить, выбрав интересующий диапазон дат из раскрывающегося списка и нажав кнопку "Ввод!".


*Определитесь, кто Вы:
робот инопланетянин человек

Внимание! Время в таблицах - всемирное. Для получения местного времени необходимо прибавить поправку, которая равна 3 ч.

Смотрите также архив погоды в соседних городах и на ближайших метеорологических станциях:

Погода в Иванове (Ивановская область, Россия) (28 км)
Погода в Суздале (Владимирская область, Россия) (48 км)
Погода в Шуе (Ивановская область, Россия) (52 км)
Погода в Юрьев-Польском (Владимирская область, Россия) (67 км)
Погода в Гаврилов-Яме (Ярославская область, Россия) (68 км)
Погода в Пешном (Атырауская область, Казахстан) (70 км)
Погода в Приволжске (Ивановская область, Россия) (74 км)
Погода в Коврове (Владимирская область, Россия) (74 км)
Погода в Ростове Великом (Ярославская область, Россия) (79 км)
Погода в Владимире (Владимирская область, Россия) (82 км)

Пояснения к столбцам:

Ветер - указаны скорость ветра в м/с - средняя за 10 мин, порывы в срок и между сроками (в фигурных скобках) и направление, откуда дует ветер: С - северный, СВ - северо-восточный, В - восточный, ЮВ - юго-восточный, Ю - южный, ЮЗ - юго-западный, З - западный, СЗ - северо-западный.
Видимость - горизонтальная дальность видимости в метрах или километрах. При видимости от 1 до 10 км при отсутствии осадков обычно наблюдается дымка, при ухудшении видимости до 1 км и менее - туман. В сухую погоду видимость может ухудшаться дымом, пылью или мглою.
Явления - указаны атмосферные явления, наблюдавшиеся в срок или в последний час перед сроком; фигурными скобками обозначены явления, наблюдавшиеся между сроками (за 1-3 часа до срока); квадратными скобками обозначены град или гололедные отложения с указанием их диаметра в мм.
Облачность - указаны через наклонную черту общая и нижняя облачность в баллах и высота нижней границы облаков в метрах; квадратными скобками обозначены формы облаков: Ci - перистые, Cs - перисто-слоистые, Cc - перисто-кучевые, Ac - высококучевые, As - высокослоистые, Sc - слоисто-кучевые, Ns - слоисто-дождевые, Cu - кучевые, Cb - кучево-дождевые. Подробнее классификацию облаков см. в Атласе облаков (PDF).
T - Температура воздуха - температура, измеренная на высоте 2 м над землей.
Td - Температура точки росы - температура, при понижении до которой содержащийся в воздухе водяной пар достигнет насыщения.
f - Относительная влажность воздуха - влажноcть воздуха, измеренная на высоте 2 м над землей.
Te - Эффективная температура - температура, которую ощущает одетый по сезону человек в тени. Характеристика душности погоды. При расчете учитывается влияние влажности воздуха и скорости ветра на теплоощущения человека.
Tes - Эффективная температура на солнце - температура, которую ощущает человек, с поправкой на солнечный нагрев. Характеристика знойности погоды. Зависит от высоты солнца над горизонтом, облачности и скорости ветра. Ночью, в пасмурную погоду, а также при ветре 12 м/с и более поправка равна нулю.
P - Атмосферное давление - приведенное к уровню моря атмосферное давление.
Po - Атмосферное давление - измеренное на уровне метеостанции атмосферное давление.
Tmin - Минимальная температура - минимум температуры воздуха на высоте 2 м над землей.
Tmax - Максимальная температура - максимум температуры воздуха на высоте 2 м над землей.
R - Количество осадков - Количество выпавших осадков за период времени, мм. При наведении курсора мыши на число - период времени, за который выпало указанное количество осадков.
R24 - Количество осадков - Количество выпавших осадков за 24 часа, мм.
S - Снежный покров - Высота снежного покрова, см. При наведении курсора мыши на число - состояние снежного покрова и степень покрытия местности в баллах.